Regional Weather Roundup
Issued by NWS Northern Indiana

Home | Current Version | Previous Version | Text Only | Print | Product List | Glossary Off
Versions: 1 2 3 4 5 6 7 8 9 10 11 12 13 14 15 16 17 18 19 20 21 22 23 24 25 26 27 28 29 30 31 32 33 34 35 36 37 38 39 40 41 42 43 44 45 46 47 48 49 50

000
ASUS43 KIWX 282210
RWRIWX

KIWX WEATHER ROUNDUP
NATIONAL WEATHER SERVICE NORTHERN INDIANA
600 PM EDT TUE MAR 28 2017

NOTE: "FAIR" INDICATES FEW OR NO CLOUDS BELOW 12,000 FEET WITH NO
SIGNIFICANT WEATHER AND/OR OBSTRUCTIONS TO VISIBILITY.

* THESE STATIONS ARE NOT UNDER NWS QUALITY CONTROL. THEY ALSO MAY NOT
  REPORT WEATHER SUCH AS PRECIPITATION OR FOG.

INZ001>027-282300-
NORTHERN INDIANA

CITY           SKY/WX    TMP DP  RH WIND       PRES   REMARKS
GARY*          CLOUDY    41  37  87 N14       30.16S
VALPARAISO     CLOUDY    43  39  86 N10       30.14R
MICHIGAN CITY* CLOUDY    39  39 100 N6        30.15S FOG
LAPORTE*       CLOUDY    41  39  91 N10       30.14R FOG
KNOX*          CLOUDY    43  28  56 N10       30.12S
SOUTH BEND     CLOUDY    44  40  85 NW9       30.13R
ELKHART*       CLOUDY    46  39  76 NE6       30.12R
GOSHEN         CLOUDY    48  39  71 N9        30.11R
MONTICELLO*    CLOUDY    47  40  76 NW8       30.11R
LOGANSPORT*    CLOUDY    46  41  81 N8        30.11R
ROCHESTER*     CLOUDY    50  45  81 N8        30.11S
WARSAW*        CLOUDY    46  41  81 N6        30.11R
ANGOLA*        CLOUDY    48  37  66 N6        30.10R
FORT WAYNE     CLOUDY    51  44  77 N3        30.09R
HUNTINGTON*    CLOUDY    49  45  85 N6        30.09S
MARION*        CLOUDY    51  45  78 N8        30.09R HAZE

$$
INZ028>050-282300-
CENTRAL INDIANA

CITY           SKY/WX    TMP DP  RH WIND       PRES   REMARKS
LAFAYETTE      CLOUDY    48  42  80 N12       30.10R
KOKOMO*        CLOUDY    50  44  80 N10       30.10R
MUNCIE*        CLOUDY    53  47  79 NE5       30.07R
INDIANAPOLIS   CLOUDY    56  45  66 N10       30.07R

$$
MIZ043>046-050>051-056>058-064>065-071>073-077>080-282300-
SOUTHWEST LOWER MICHIGAN

CITY           SKY/WX    TMP DP  RH WIND       PRES   REMARKS
BATTLE CREEK   CLOUDY    46  39  76 NE9       30.13R
BENTON HARBOR  CLOUDY    41  36  82 N8        30.14R
COLDWATER*     CLOUDY    46  40  78 N8        30.11R
HILLSDALE*     CLOUDY    43  37  81 N6        30.10R
HOLLAND        PTSUNNY   49  40  71 W6        30.14R
GRAND RAPIDS   MOSUNNY   51  39  63 NE8       30.13S
KALAMAZOO      CLOUDY    48  38  68 N7        30.13R
STURGIS*       CLOUDY    47  40  77 NE7       30.11R
THREE RIVERS*  CLOUDY    46  40  78 NE6       30.12R

$$
OHZ001>008-015>018-024>025-282300-
NORTHWEST OHIO

CITY           SKY/WX    TMP DP  RH WIND       PRES   REMARKS
WAUSEON*       CLOUDY    48  41  76 N7        30.10R
DEFIANCE       CLOUDY    49  40  71 N8        30.10R
FINDLAY        CLOUDY    49  41  74 NE9       30.07R
TOLEDO EXPRESS CLOUDY    47  40  76 N8        30.09R
TOLEDO METCALF CLOUDY    49  41  74 NE5       30.10R
LIMA           CLOUDY    49  45  86 NE7       30.07R

$$
AND FOR LAKE MICHIGAN COASTAL AND OPEN LAKE BUOY OBSERVATIONS

STATION/POSITION TEMP    WIND        PRES    VSBY  WAVE
                 AIR SEA DIR/SP/G                  HT/PER
                 (F)     (DEG/KT/KT) (MB)    (MI)  (FT/S)
CALUMET HARBOR    38     340/ 10/ 15 1020.6F
MICHIGAN CITY     38     360/  7/  8   N/A
BURNS HARBOR      38      20/  8/ 10 1021.3S

$$
&&




USA.gov is the U.S. government's official web portal to all federal, state and local government web resources and services.